Dewpoint
32 31 31 32 33 33 34 35 33 30 29 32 35 37 38 38 38 39 39 38 41 41 41 40 39 38 39 40 41 42 43 45 47 46 45 46 48 47
30 28 29 30 30 31 32 32 33 32 30 32 34 36 36 34 35 37 37 40 38 37 36 37 37 39 40 40 43 43 43 45 46 45 44 45 46 47
23 25 24 27 27 28 29 30 29 31 29 31 33 32 33 34 36 37 37 36 35 35 37 37 38 38 38 39 39 38 40 41 45 43 43 43 45 45
19 20 20 23 24 26 26 26 28 30 31 25 27 31 32 35 36 36 36 35 34 36 37 37 36 36 39 39 39 38 39 41 42 43 42 41 42 45
21 21 21 23 21 22 23 25 27 27 27 27 28 32 34 34 34 34 34 34 35 36 35 35 35 36 36 39 39 38 38 39 39 40 43 43 44 45
23 23 24 23 21 22 25 26 27 27 26 28 30 31 33 32 32 31 31 33 32 33 35 35 36 37 35 34 34 36 37 37 39 40 40 42 42 44
24 25 24 23 27 26 25 27 28 28 29 28 30 31 29 26 27 31 32 33 33 34 33 34 34 33 34 34 36 36 35 36 37 38 39 41 43 43
23 23 22 24 23 23 22 23 24 25 26 28 27 27 28 28 30 32 32 30 28 31 32 32 32 32 32 33 35 33 34 34 36 37 37 39 42 43
24 23 23 22 23 21 21 23 23 25 26 26 28 29 28 28 30 31 30 30 29 31 32 30 31 30 32 32 34 33 33 36 36 36 38 39 41 42
24 24 23 22 21 22 23 23 25 26 26 28 29 31 31 30 32 32 31 31 32 31 31 29 30 30 32 32 31 32 34 37 36 36 38 40 41 41
22 23 22 21 21 25 24 24 24 25 28 30 32 32 31 32 32 32 29 29 27 26 30 31 30 30 28 26 29 32 35 34 34 36 38 39 39 40
22 21 22 23 25 23 24 25 24 25 27 29 29 30 31 31 33 31 29 29 28 26 32 30 27 28 25 25 29 31 34 34 34 35 37 38 39 39
21 22 21 23 24 25 25 27 27 28 30 30 30 30 30 30 29 29 29 32 29 26 27 30 27 25 26 26 28 30 31 33 33 34 36 36 37 38
22 22 23 26 27 28 27 29 28 26 28 28 29 29 28 29 27 28 30 30 30 29 29 30 28 26 25 24 26 28 30 32 33 33 32 34 36 38
27 27 28 28 28 28 28 27 27 29 28 26 26 28 28 26 27 28 27 25 26 26 28 28 27 27 27 26 27 29 29 30 33 32 32 32 32 36
30 31 30 30 29 29 29 28 28 28 27 27 27 29 27 27 27 26 22 21 23 25 26 25 25 26 27 28 29 28 29 28 31 32 32 32 32 36
24 27 29 28 29 28 28 28 28 27 27 27 27 27 27 28 26 24 22 21 23 23 23 23 23 26 30 28 27 28 28 29 31 31 31 31 32 32
24 25 26 27 26 27 27 27 27 27 29 29 28 28 28 27 25 23 23 22 22 23 23 23 24 25 24 23 28 28 29 29 31 31 31 29 29 32
25 25 26 26 26 26 26 27 27 27 29 29 28 27 26 25 26 25 23 22 23 24 24 23 23 22 22 20 23 28 28 30 30 29 29 29 29 30
25 25 25 25 26 25 25 27 26 27 27 27 26 27 26 25 25 25 22 20 21 22 22 21 21 21 21 23 24 25 31 30 29 29 29 30 31 32
23 23 23 24 27 26 27 27 27 26 27 27 26 25 25 25 24 24 23 24 24 24 22 21 22 25 26 27 23 22 24 28 31 29 29 27 26 27
25 23 25 26 27 25 26 26 26 26 25 25 25 25 25 25 25 24 23 23 22 23 23 23 23 23 25 23 22 23 24 26 29 32 32 31 27 24
26 26 26 25 23 24 25 25 25 25 25 24 24 25 27 25 25 24 25 25 24 23 22 23 22 22 24 24 24 23 23 23 26 27 27 31 31 31
Wind_Speed
5 6 6 6 7 6 5 4 6 9 14 6 7 9 16 15 15 16 16 16 17 16 19 22 24 28 27 26 25 24 27 26 22 22 24 24 22 21
6 8 8 7 10 9 9 10 8 11 11 7 9 10 14 16 19 19 15 13 13 16 22 23 25 23 23 25 23 22 24 26 24 24 26 27 24 22
6 8 12 10 12 13 12 12 13 12 16 10 8 11 12 14 16 17 18 14 10 18 21 22 21 23 25 25 23 25 25 27 25 24 24 27 27 25
9 11 14 11 15 14 13 15 14 14 12 19 11 10 12 14 14 16 15 14 16 20 26 24 24 23 23 25 27 25 25 24 25 27 27 28 29 29
9 11 14 14 16 16 16 16 14 14 15 15 15 8 8 12 12 12 13 15 12 16 20 22 23 22 22 22 23 26 27 25 26 23 20 24 28 29
11 12 13 14 15 17 16 17 15 16 16 15 13 12 10 11 11 14 15 14 16 17 17 18 19 20 23 25 23 24 26 27 27 26 26 24 25 27
13 14 13 13 15 17 15 15 17 16 16 16 13 10 13 15 16 16 17 16 15 15 16 14 13 16 15 19 19 21 25 27 28 28 28 27 25 23
16 16 17 17 16 18 20 22 20 17 17 12 13 14 12 15 13 14 15 16 20 10 4 17 13 16 15 15 18 25 26 30 30 29 28 29 29 22
18 17 17 14 16 16 19 20 20 20 19 14 15 15 14 13 16 16 14 15 19 19 10 19 14 18 14 15 22 29 27 24 22 26 27 28 28 26
18 18 18 19 18 16 15 18 19 17 16 13 13 15 13 14 14 14 16 16 17 16 9 14 8 16 14 15 23 26 23 21 28 27 26 26 27 24
16 16 17 16 18 17 17 17 19 20 12 15 17 20 23 22 19 13 14 14 18 15 7 8 7 13 17 21 15 19 20 25 25 25 25 25 25 20
14 15 18 20 20 21 17 17 18 18 16 16 16 17 16 14 14 10 12 13 14 10 1 8 16 9 10 11 10 15 13 20 24 24 24 24 23 17
14 14 15 21 24 25 23 15 17 18 18 15 15 15 13 12 11 11 11 9 10 13 13 7 10 14 10 18 14 18 16 14 18 18 19 20 21 19
16 14 14 19 22 24 24 21 22 23 14 14 13 15 15 13 12 10 9 11 12 17 17 11 9 14 15 20 20 15 15 16 16 15 13 16 18 17
16 19 26 26 25 21 21 24 26 15 15 16 16 16 16 14 8 6 9 12 13 15 13 14 14 15 13 17 20 17 19 13 15 13 15 13 13 9
17 16 19 24 26 22 21 17 12 14 15 16 16 15 11 7 10 10 11 13 9 12 13 15 13 10 12 13 16 20 17 11 15 17 16 13 11 9
22 11 13 14 13 14 14 14 14 14 15 16 15 15 14 11 14 12 10 9 10 12 16 16 16 11 11 15 16 15 16 15 15 15 11 12 7 10
15 13 13 12 13 13 14 14 13 15 14 14 14 14 12 12 14 11 8 11 15 15 15 12 11 13 11 10 13 13 12 11 12 13 10 8 9 7
12 12 12 13 13 13 13 13 15 12 12 11 10 11 11 12 12 13 12 11 12 13 15 13 12 10 12 13 8 8 13 15 12 12 8 7 7 8
11 12 14 13 13 14 15 12 13 13 13 13 12 12 12 12 13 13 12 12 14 14 15 12 11 10 8 7 9 16 13 13 12 10 9 5 4 5
12 13 13 14 14 13 12 13 13 13 13 11 8 11 13 12 14 15 13 12 14 8 12 14 14 12 11 8 8 11 13 10 10 10 8 6 4 5
12 13 14 15 11 14 13 13 13 14 14 13 13 12 13 12 12 13 9 9 11 11 12 15 14 10 2 4 10 13 13 11 8 4 4 4 2 4
13 13 14 14 14 13 13 11 12 13 14 14 14 13 11 11 12 11 10 9 10 12 11 12 10 5 5 5 9 12 14 15 7 5 3 1 2 3
Wind_Direction
25 7 350 340 340 330 318 316 310 312 307 291 333 320 326 324 318 312 314 316 323 327 326 322 320 317 313 310 307 304 300 296 290 292 293 289 287 290
14 351 345 330 327 327 327 321 312 298 297 309 299 306 316 316 315 317 306 301 311 319 318 316 315 312 311 314 314 317 313 296 291 291 292 288 284 284
355 343 327 329 324 324 324 316 310 302 296 303 292 298 302 306 307 309 309 310 301 315 316 316 315 312 310 308 311 310 311 310 300 294 295 295 286 279
334 332 322 327 321 314 312 309 303 297 291 302 299 295 296 303 304 309 304 304 312 314 319 315 316 313 309 310 307 311 312 307 300 293 289 291 287 280
313 310 308 315 315 312 311 307 303 295 289 293 297 284 281 294 303 305 301 299 296 296 306 308 311 313 317 318 316 313 311 307 309 301 303 301 289 279
292 292 295 300 304 306 304 297 296 291 293 294 293 291 289 300 303 306 306 303 299 298 296 296 298 305 308 307 306 302 302 304 306 305 298 290 290 283
286 284 288 289 293 302 300 294 295 293 292 294 296 299 308 315 311 305 300 300 296 287 282 293 312 306 299 302 301 299 304 307 305 301 297 293 282 283
289 292 294 294 290 292 301 299 297 296 288 286 293 295 295 301 302 298 298 309 309 277 280 296 286 285 291 289 290 304 303 306 304 299 293 290 286 269
287 285 284 282 285 290 297 299 300 299 293 290 283 281 288 296 295 293 298 294 296 293 297 296 297 294 292 294 303 307 308 306 312 315 302 284 284 271
282 278 276 275 276 283 291 293 290 290 293 291 275 278 278 281 268 282 293 291 293 298 290 284 293 294 292 295 299 301 303 304 312 314 306 307 277 261
278 272 272 274 277 288 297 291 297 293 293 289 286 288 294 295 299 307 308 307 303 304 274 270 293 303 300 296 288 300 305 311 311 320 314 306 303 291
294 285 284 290 287 292 293 291 290 291 289 289 288 289 285 288 293 288 293 286 291 297 274 299 305 317 307 285 288 297 291 303 310 316 310 304 300 287
313 305 294 292 293 289 280 272 272 282 282 284 277 274 280 288 287 291 295 262 288 285 281 292 291 305 296 303 305 307 301 304 305 302 301 302 298 290
301 295 292 297 298 290 285 275 277 292 294 289 282 280 274 271 274 281 293 289 282 269 279 278 271 281 295 297 300 304 302 302 300 299 308 301 305 297
302 298 301 301 299 295 288 283 286 286 279 283 279 274 258 249 256 261 271 289 293 293 276 270 266 280 288 288 293 299 308 313 307 312 313 309 310 300
293 288 294 295 292 288 293 289 278 273 271 269 270 271 259 249 245 250 276 299 307 304 292 283 279 266 283 285 293 296 299 301 307 310 309 308 323 314
314 317 300 297 293 288 283 281 278 271 271 270 268 265 255 248 252 250 263 287 289 290 296 298 306 295 271 287 293 290 295 304 305 312 314 320 339 351
319 300 298 297 294 289 286 285 283 284 274 273 270 262 248 261 266 269 268 277 290 293 298 305 313 324 304 298 256 280 297 300 310 316 315 319 328 356
313 305 296 293 293 295 290 287 290 286 284 287 297 293 281 279 277 261 270 282 296 290 292 301 310 323 318 314 289 308 308 304 312 316 319 317 305 329
305 297 298 297 293 304 298 289 295 294 290 284 274 274 271 271 274 263 265 281 293 288 295 304 301 304 306 302 306 306 297 295 309 312 318 313 302 312
310 309 309 300 287 295 285 289 283 289 294 303 291 283 280 273 273 260 263 280 287 290 305 303 298 301 292 280 297 308 307 291 286 294 313 314 327 341
295 302 299 304 282 298 294 293 291 286 287 287 289 286 282 269 266 261 257 271 280 280 285 291 303 318 288 267 290 296 303 312 309 288 313 289 316 338
288 289 292 299 299 290 287 285 293 294 285 279 280 282 285 276 274 260 245 256 266 279 286 298 313 321 297 273 285 295 310 317 310 307 287 250 53 13